Starlink 5738

operational
NORAD ID: 55573 Int'l Des: 2023-020 Owner: SPXS Country: US Constellation: starlink
LEOCIRCULAR

Starlink 5738について

説明を読み込み中...

リアルタイム位置

3D地球を読み込み中...

次回通過

高度履歴

Altitude vs Time

uPlot chart will show altitude changes over time

軌道要素

1 55573U 23020E 26035.43465688 .00001639 00000-0 13638-3 0 9995
2 55573 43.0031 185.6174 0001415 265.0052 95.0629 15.02539879163911
Epoch: Feb 4, 2026 • Age: 12 hours

現在のステータス

高度 561.1 km
速度 7.58 km/s
衛星直下点 -13.10°S, 95.07°W
打ち上げ日 Feb 12, 2023
運用期間 2.9 years
タイプ internet

技術仕様

分類 Payload
質量 305.00 kg
乾燥質量 290.00 kg
総質量 305.00 kg
長さ 0.20 m
直径 2.80 m
スパン 9.00 m
形状 Box + pan
製造者 SPXS
バスタイプ Starlink
フェーズステータス In Orbit
所有者/国 SPXS/US

大規模コンステレーション

Loading constellations...